Showing default

GHOST-3, 56958

Orbit data source: Space-Track

GHOST-3, 56958 is a payload satellite owned by Orbital Sidekick (US) in SSO that was launched on Mon, 12 Jun 2023 UTC via an FALCON 9 launch vehicle from the Air Force Western Test Range (AFWTR). Payload-class satellites include a variety of spacecraft equipped with specific instruments for various scientific and technological missions. These include communications satellites like Starlink; space stations such as the ISS; scientific satellites like the Hubble; Earth observation satellites from companies like Planet Labs, Umbra, and HawkEye 360; GPS; miniature CubeSats for education and research; and military/defense satellites.

Loading next visibility...
Identifier
56958, 2023-084AC
Orbit
SSO
Country
Flag of USUS
Related business
Manufacturer
Astro Digital
Mission
Operational Commercial Imaging
Bus & Motor
CORVUS-XL, Unknown motor
Mass
85 kg wet, 85 kg dry
Launch date (UTC)
2023-06-12 (2 years ago)
Launch vehicle
FALCON 9
Launch site
Air Force Western Test Range (AFWTR)
Object type
Payload
Rocket body
Debris
Shape & HBR
Box + 1 Dish, 1.0 m
Radar Cross Section
0.425 m², Medium (>0.1 m² and < 1m²)

Expand to show TLE details & history
Last TLE update: 13 hours ago

TLE from 13 hours ago
0 GHOST-3
1 56958U 23084AC  25307.61734035  .00017117  00000-0  45105-3 0  9991
2 56958  97.5947  81.0900 0008214  31.8740 328.3000 15.38556795133223
Epoch: 2025-11-03T14:48Z
TLE epoch observation values (Epoch: 2025-11-03T14:48:58.206Z)
Latitude
-0.00002°
Longitude
175.73133°
Altitude
448.714 km
Speed
7.646 km/s
True Right ascension
05h 24m 21s
True Declination
0° 00' 00"
Sunlit
Object was in full shadow at epoch
Visualization orbit readout
Latitude
Unknown
Longitude
Unknown
Altitude
Unknown
Speed
Unknown
Apparent Right ascension
Unknown
Apparent Declination
Unknown
Sunlit
N/A
Visualization observer readout
Local Sidereal Time
00:05:58
Azimuth
Unknown
Elevation
Unknown
Doppler factor
Unknown
Orbital elements
Apogee altitude
452.932 km
Perigee altitude
441.719 km
Semi-major axis
6,825.463 km
Eccentricity
0.00082
Inclination
97.5947°
RAAN
81.09°
Arg. of periapsis
31.874°
True anomaly
328.2505°
Mean anomaly
328.3°
Eccentric anomaly
328.27525°
Mean motion
3.84897 °/min
Orbital period
93.53 mins
BSTAR
0.00045105
Loading maneuver chart data...
Computing Atmospheric mass density...
Loading historical data...
Loading historical data...
Loading historical data...
Loading historical data...
Loading historical data...
Loading historical data...
Loading historical data...

Documentation

Showing up to 5 results
|